Tracking 33180 objects as of 11-Feb-2026
HD Live streaming from Space Station
objects crossing your sky now

STARLINK-31689

Track STARLINK-31689 now!
10-day predictions
STARLINK-31689 is classified as:


NORAD ID: 59567
Int'l Code: 2024-076D
Perigee: 489.1 km
Apogee: 491.2 km
Inclination: 43.0 °
Period: 94.3 minutes
Semi major axis: 6861 km
RCS: Unknown
Launch date: April 23, 2024
Source: United States (US)
Launch site: AIR FORCE EASTERN TEST RANGE (AFETR)
Your satellite tracking list
Your tracking list is empty




NASA's NSSDC Master Catalog

Two Line Element Set (TLE):
1 59567U 24076D   26041.63645538  .00001386  00000-0  59898-4 0  9995
2 59567  43.0025 158.4707 0001556 327.6106  32.4650 15.27582616102402
Source of the keplerian elements: AFSPC